#timestamp,LO_Frequency,Hit,StdDev 
1595966415.9,286047000.5,N
1595966435.7,286046999.4,P
1595966455.6,286047000.3,N
1595966475.4,286047000.7,N
1595966495.2,286047000.7,N
1595966515.1,286046998.1,Y
1595966516.0,286046998.1,P
1595966535.8,286047000.7,N
1595966555.7,286047000.6,N
1595966575.5,286047000.8,N
1595966595.3,286047000.4,N
1595966615.2,286046998.1,N
1595966635.0,286047000.6,N
1595966635.9,286047000.6,N
1595966655.8,286047000.8,N
1595966675.6,286047000.6,N
1595966695.4,286047000.6,N
1595966715.3,286046999.9,N
1595966735.1,286046999.9,N
1595966755.8,286047000.8,N
1595966775.7,286046998.6,N
1595966795.5,286047001.0,N
1595966815.4,286047002.8,Y
1595966835.2,286047002.6,P
1595966855.0,286047002.4,N
1595966855.9,286047002.4,N
1595966875.8,286047000.1,N
1595966895.6,286047000.2,N
1595966915.5,286046999.8,N
1595966935.3,286047000.5,N
1595966955.1,286047002.4,N
1595966975.9,286047002.4,N
1595966995.7,286046999.8,N
1595967015.6,286046999.7,N
1595967035.4,286047000.9,N
1595967055.2,286047000.0,N
1595967075.1,286047002.7,N
1595967076.0,286047002.7,N
1595967095.8,286047000.2,N
1595967115.7,286047001.5,N
1595967135.5,286047001.6,N
1595967155.3,286047004.4,Y
1595967175.2,286047002.4,P
1595967195.0,286047000.2,N
1595967195.9,286047000.2,N
1595967215.7,286047002.4,N
1595967235.6,286047000.2,N
1595967255.4,286047001.0,N
1595967275.3,286047000.6,N
1595967295.1,286047000.7,N
1595967315.8,286047000.1,N
1595967335.7,286047000.0,N
1595967355.5,286047002.7,Y
1595967375.4,286047000.6,P
1595967395.2,286047000.6,P
1595967415.0,286047001.2,P
1595967415.9,286047001.2,Y
1595967435.8,286047001.1,P
1595967455.6,286046999.0,P
1595967475.5,286046998.8,N
1595967495.3,286046998.3,N
1595967515.1,286046999.4,N
1595967535.9,286046998.2,N
1595967555.7,286046998.4,N
1595967575.5,286047001.1,N
1595967595.4,286046998.7,N
1595967615.2,286046998.8,N
1595967635.1,286046999.3,N
1595967636.0,286046999.3,N
1595967655.8,286046999.4,N
1595967675.6,286046998.4,N
1595967695.5,286046998.5,N
1595967715.3,286046998.2,N
1595967735.2,286046998.4,N
1595967755.9,286047000.5,N
1595967775.7,286047000.7,N
1595967795.6,286047000.8,N
1595967815.4,286047000.8,N
1595967835.2,286047001.1,N
1595967855.1,286047000.9,N
1595967856.0,286047000.9,N
1595967875.8,286047000.8,N
1595967895.7,286047001.0,N
1595967915.5,286047000.0,N
1595967935.3,286047000.7,N
1595967955.2,286046998.5,N
1595967975.0,286046998.2,N
1595967975.9,286046998.2,N
1595967995.7,286046998.8,N
1595968015.6,286047001.2,N
1595968035.4,286047001.2,N
1595968055.3,286046998.1,N
1595968075.1,286046998.5,N
1595968095.8,286046998.1,N
1595968115.7,286046998.6,N
1595968135.5,286046998.2,N
1595968155.4,286046998.1,N
1595968175.2,286046998.3,N
1595968195.0,286047001.2,N
1595968195.9,286047001.2,N
1595968215.8,286047000.8,N
1595968235.6,286046999.3,N
1595968255.5,286046999.0,N
1595968275.3,286046998.5,N
1595968295.1,286047001.2,N
1595968315.9,286047001.2,N
1595968335.7,286047000.8,N
1595968355.5,286047000.9,N
1595968375.4,286047001.0,N
1595968395.2,286047000.7,N
1595968415.1,286047000.6,N
1595968416.0,286047000.6,N
1595968435.8,286047001.0,N
1595968455.6,286047000.1,N
1595968475.5,286047000.3,N
1595968495.3,286047000.7,N
1595968515.2,286047000.9,N
1595968535.9,286047000.6,N
1595968555.7,286047000.5,N
1595968575.6,286047001.1,N
1595968595.4,286047000.8,N
1595968615.2,286047000.6,N
1595968635.1,286047000.6,N
1595968636.0,286047000.6,N
1595968655.8,286047000.9,N
1595968675.7,286047000.8,N
1595968695.5,286047001.2,N
1595968715.3,286047001.0,N
1595968735.2,286047001.2,N
1595968755.0,286046998.1,Y
1595968755.9,286046998.1,P
1595968775.8,286047001.1,N
1595968795.6,286046998.5,N
1595968815.4,286046998.8,N
1595968835.3,286046998.4,N
1595968855.1,286046998.3,N
1595968875.8,286046998.4,N
1595968895.7,286046998.9,N
1595968915.5,286046999.2,N
1595968935.4,286046999.3,N
1595968955.2,286046999.4,N
1595968975.0,286046998.8,N
1595968975.9,286046998.8,N
1595968995.8,286046998.5,N
1595969015.6,286046998.6,N
1595969035.5,286046999.4,N
1595969055.3,286046996.6,Y
1595969075.1,286046998.4,P
1595969095.9,286046999.2,N
1595969115.7,286046999.4,N
1595969135.5,286046994.9,Y
1595969155.4,286046999.2,P
1595969175.2,286046999.0,P
1595969195.1,286046996.7,P
1595969196.0,286046996.7,Y
1595969215.8,286046999.4,P
1595969235.6,286046999.0,N
1595969255.5,286046996.7,P
1595969275.3,286046997.0,N
1595969295.2,286046997.4,N
1595969315.9,286046997.2,N
1595969335.7,286046996.7,Y
1595969355.6,286046998.7,P
1595969375.4,286046998.4,P
1595969395.3,286046999.3,N
1595969415.1,286046998.3,Y
1595969416.0,286046998.3,P
1595969435.8,286046999.8,N
1595969455.7,286047001.2,N
1595969475.5,286047000.1,N
1595969495.3,286047002.3,N
1595969515.2,286047002.5,N
1595969535.0,286046999.7,N
1595969535.9,286046999.7,N
1595969555.8,286047002.3,N
1595969575.6,286047002.4,N
1595969595.4,286047000.1,N
1595969615.3,286047000.9,N
1595969635.1,286046998.2,N
1595969655.9,286046998.3,N
1595969675.7,286047000.9,N
1595969695.5,286047000.3,N
1595969715.4,286047000.0,N
1595969735.2,286047002.6,N
1595969755.0,286047000.0,N
1595969756.0,286047000.0,N
1595969775.8,286047002.3,N
1595969795.6,286047004.4,Y
1595969815.5,286047001.7,P
1595969835.3,286047002.1,P
1595969855.1,286047001.9,N
1595969875.9,286047002.5,Y
1595969895.7,286047000.2,P
1595969915.6,286046999.7,N
1595969935.4,286047002.6,P
1595969955.2,286047002.5,N
1595969975.1,286047002.2,N
1595969976.0,286047002.2,N
1595969995.8,286047002.4,N
